Regional Weather Roundup
Issued by NWS

Home | Current Version | Previous Version | Graphics & Text | Print | Product List | Glossary On
Versions: 1 2 3 4 5 6 7 8 9 10 11 12 13 14 15 16 17 18 19 20 21 22 23 24 25 26 27 28 29 30 31 32 33 34 35 36 37 38 39 40 41 42 43 44 45 46 47 48 49 50
000
ASUS43 KMKX 060720
RWRWI

WISCONSIN REGIONAL WEATHER ROUNDUP
NATIONAL WEATHER SERVICE MILWAUKEE/SULLIVAN WI
100 AM CST FRI MAR 06 2015

NOTE: "FAIR" INDICATES FEW OR NO CLOUDS BELOW 12,000 FEET WITH NO
SIGNIFICANT WEATHER AND/OR OBSTRUCTIONS TO VISIBILITY.

WIZ001-002-006>008-014>016-023>028-060800-
NORTHWEST WISCONSIN

CITY           SKY/WX    TMP DP  RH WIND       PRES   REMARKS
SUPERIOR ARPT  FAIR       7  -2  67 SW10      30.18F WCI  -8
ASHLAND        CLEAR      6  -3  66 S9        30.20F WCI  -8
HAYWARD        CLEAR      3  -4  72 S9        30.20F WCI -12
SIREN          CLEAR      7   0  74 S8        30.20F WCI  -6
CUMBERLAND     PTCLDY    -2  -6  84 S7        30.22F WCI -16
RICE LAKE      PTCLDY     1  -5  78 SE9       30.25F WCI -15
CHETEK         PTCLDY     4  -2  75 SE5       30.26F WCI  -6
LADYSMITH      PTCLDY    -1  -7  78 SE3       30.26F
EAU CLAIRE     PTCLDY     2  -5  72 S8        30.29F WCI -12
MENOMONIE      CLEAR      1  -5  76 E5        30.29F WCI  -9
NEW RICHMOND   CLEAR      6   0  75 S10       30.24F WCI  -9
OSCEOLA        CLEAR      5  -1  77 SE6       30.26F WCI  -6
$$

WIZ003>005-009-010-017-018-060800-
NORTH CENTRAL WISCONSIN

CITY           SKY/WX    TMP DP  RH WIND       PRES   REMARKS
MANITOWISH WTR CLEAR     -1  -7  73 SW6       30.18F WCI -12
ARBOR VITAE    CLEAR     -1  -8  71 SW5       30.19F WCI -11
WOODRUFF       CLEAR     -1  -8  71 SW5       30.19F WCI -11
RHINELANDER    PTCLDY    -1 -11  62 SW9       30.22F WCI -16
EAGLE RIVER    PTCLDY    -2 -12  62 CALM      30.19F
LAND O LAKES   CLEAR     -1  -9  68 SW6       30.19F WCI -12
PHILLIPS       CLEAR     -2  -8  75 SW5       30.21F WCI -12
TOMAHAWK       PTCLDY    -5 -12  74 CALM      30.25F
MEDFORD        PTCLDY    -1  -8  74 S6        30.25F WCI -13
MERRILL        PTCLDY    -8 -14  75 CALM      30.28F
$$

WIZ029-030-035-036-043>047-060800-
CENTRAL WISCONSIN

CITY           SKY/WX    TMP DP  RH WIND       PRES   REMARKS
WAUSAU         PTCLDY     1  -9  62 S5        30.29F WCI  -9
MOSINEE        PTCLDY    -2  -8  78 SW7       30.31F WCI -16
MARSHFIELD     PTCLDY    -1  -8  72 SW8       30.30F WCI -15
STEVENS POINT  PTCLDY    -1  -8  72 S6        30.34F WCI -13
WAUPACA        PTCLDY     5  -6  61 SW5       30.39F WCI  -4
WAUTOMA        MOCLDY    -5 -11  75 CALM      30.40F
WISC RAPIDS    PTCLDY     0  -8  69 S6        30.37F WCI -12
CAMP DOUGLAS   PTCLDY    -1  -6  80 S3        30.37F
$$

WIZ011>013-019>022-031-037>040-048>050-060800-
NORTHEAST WISCONSIN

CITY           SKY/WX    TMP DP  RH WIND       PRES   REMARKS
ANTIGO         PTCLDY    -4 -11  71 SW6       30.26F WCI -17
SHAWANO        PTCLDY     4  -7  61 CALM      30.36F
OCONTO         PTCLDY    -5 -12  72 CALM      30.37F
STURGEON BAY   PTCLDY     5  -8  56 SW8       30.37F WCI  -8
GREEN BAY      PTCLDY     4  -7  60 SW7       30.39F WCI  -8
MANITOWOC      PTCLDY     3  -5  69 CALM      30.41F
APPLETON       PTCLDY     5  -8  56 SW8       30.38F WCI  -8
CLINTONVILLE   PTCLDY     1  -8  66 SW7       30.36F WCI -11
OSHKOSH        MOCLDY     3  -6  66 SW6       30.39F WCI  -8
$$

WIZ032>034-041-042-053>061-060800-
SOUTHWEST WISCONSIN

CITY           SKY/WX    TMP DP  RH WIND       PRES   REMARKS
LA CROSSE      PTCLDY     5  -4  66 S12       30.39F WCI -11
SPARTA         CLEAR     -4  -9  80 CALM      30.38F
VIROQUA        PTCLDY     0  -6  78 S6        30.34F WCI -12
BOSCOBEL       PTCLDY    -7 -12  79 CALM      30.45F
PRAIRIE DU CHI CLEAR     -3  -8  77 S3        30.44F
PLATTEVILLE    PTCLDY    -1  -8  74 SE8       30.42F WCI -16
$$

WIZ056-057-062-063-064-067-068-060800-
SOUTH CENTRAL WISCONSIN

CITY           SKY/WX    TMP DP  RH WIND       PRES   REMARKS
REEDSBURG      MOCLDY     3  -4  70 SW6       30.40F WCI  -8
BARABOO/DELLS  MOCLDY     2  -6  68 SW7       30.39F WCI -10
LONE ROCK      PTCLDY    -6 -11  79 E3        30.44F
MINERAL POINT  PTCLDY     1  -6  71 S6        30.40F WCI -10
MADISON        PTCLDY     3  -6  66 CALM      30.43F
MIDDLETON      PTCLDY     4  -6  63 SW3       30.43F
WATERTOWN      MOCLDY     1  -7  71 CALM      30.43F
MONROE         PTCLDY     1  -6  71 SW8       30.42F WCI -12
JANESVILLE     PTCLDY     1  -8  66 SW5       30.47F WCI  -8
$$

WIZ051-052-058>065-066-070>072-060800-
SOUTHEAST WISCONSIN

CITY           SKY/WX    TMP DP  RH WIND       PRES   REMARKS
MILWAUKEE      PTCLDY     4  -7  60 SW8       30.46F WCI  -9
WAUKESHA       PTCLDY     1  -8  66 SW6       30.45F WCI -10
MILWAUKEE/TIMM PTCLDY     5  -6  61 SW7       30.46F WCI  -7
RACINE         PTCLDY     2  -8  63 SW6       30.49F WCI  -9
BURLINGTON     PTCLDY    -9 -14  80 SW3       30.47S
KENOSHA        PTCLDY     0  -7  72 SW8       30.47F WCI -14
FOND DU LAC    MOCLDY     4  -5  66 SW9       30.41F WCI -10
SHEBOYGAN      PTCLDY     1  -7  68 SW10      30.42F WCI -15
WEST BEND      PTCLDY     3  -8  60 SW6       30.42F WCI  -8
JUNEAU         MOCLDY     0  -8  71 SW8       30.43F WCI -15
$$

LSZ147-162-060800-
LAKE SUPERIOR

STATION/POSITION TIME  TEMP    WIND        PRES    WAVE
                       AIR SEA DIR/SP/G            HT/PER
                 (UTC) (F)     (DEG/KT/KT) (MB)    (FT/S)
DEVILS ISLAND    0700    8     190/  8/ 10 1023.3F
PORT WING        0620    9     190/ 10/ 17 1022.4F
SAXON HARBOR     0600    9     200/ 11/ 17 1023.7
$$

LMZ867-665-643>646-060800-
LAKE MICHIGAN

STATION/POSITION TIME  TEMP    WIND        PRES    WAVE
                       AIR SEA DIR/SP/G            HT/PER
                 (UTC) (F)     (DEG/KT/KT) (MB)    (FT/S)
NORTHPORT PIER   0622    8     260/  5/ 16 1027.8F
SISTER BAY       0628    6     250/ 11/ 12   N/A
KEWAUNEE LAKESHO 0600    6     240/  6/ 10 1028.8F
SHEBOYGAN LAKESH 0700    7     230/ 10/ 11 1032.3F
PORT WASHINGTON  0640    6     260/  6/  9 1031.8F
MILWAUKEE LAKESH 0700    8     240/ 10/ 13   N/A
KENOSHA   LAKESH 0700    5     230/  8/ 12 1032.2F
$$

TC  - TEMPERATURE IN CELSIUS
VSB - VISIBILITY IN STATUTE MILES
WCI - WIND CHILL INDEX
HX  - HEAT INDEX



USA.gov is the U.S. government's official web portal to all federal, state and local government web resources and services.